Regional Weather Roundup
Issued by NWS

Home | Current Version | Previous Version | Graphics & Text | Print | Product List | Glossary On
Versions: 1 2 3 4 5 6 7 8 9 10 11 12 13 14 15 16 17 18 19 20 21 22 23 24 25 26 27 28 29 30 31 32 33 34 35 36 37 38 39 40 41 42 43 44 45 46 47 48 49 50
000
ASUS45 KABQ 281710
RWRNM
NEW MEXICO REGIONAL WEATHER ROUNDUP
NATIONAL WEATHER SERVICE ALBUQUERQUE NM
1100 AM MDT TUE JUL 28 2015

NOTE: "FAIR" MEANS FEW OR NO CLOUDS BELOW 12,000 FEET AGL WITH NO
       SIGNIFICANT WEATHER OR OBSTRUCTIONS TO VISION.

      THIS PRODUCT IS RELEASED AS TWO VERSIONS.  ONE VERSION NEAR
      THE TOP OF THE HOUR CONTAINING PRELIMINARY DATA FROM ALBUQUERQUE
      AND OTHER STATIONS.  A FINAL VERSION WITH ADDITIONAL DATA IS
      ISSUED ABOUT 10 MINUTES AFTER THE HOUR.

NMZ501-503-504-510>518-281800-
NORTHWEST PLATEAU/NORTHCENTRAL MOUNTAINS

CITY           SKY/WX    TMP DP  RH WIND       PRES   REMARKS
FARMINGTON     SUNNY     79  31  17 VRB5      30.17F
LOS ALAMOS     MOSUNNY   76  47  34 CALM      30.31S
SANTA FE       MOSUNNY   82  45  27 NW7       30.22S
TAOS           PTSUNNY   77  45  31 SW6       30.30S
ANGEL FIRE     FAIR      67  53  59 CALM      30.39S

$$
NMZ402-403-502-505>509-281800-
WESTCENTRAL MOUNTAINS/SOUTHWEST MOUNTAINS

CITY           SKY/WX    TMP DP  RH WIND       PRES   REMARKS
GALLUP         CLOUDY    78  39  24 VRB5      30.27S
GRANTS         MOSUNNY   76  44  31 N5        30.29S
SILVER CITY      N/A     84  50  30 NW12      30.18F

$$
NMZ407-409-411-412-281800-
SOUTHERN DESERTS

CITY           SKY/WX    TMP DP  RH WIND       PRES   REMARKS
LORDSBURG      FAIR      86  55  35 N13       30.10S
DEMING         MOSUNNY   88  52  29 VRB7      30.08F
LAS CRUCES     PTSUNNY   82  61  49 E6        30.11S
ALAMOGORDO     MOSUNNY   86  55  35 NW3       30.08S
T OR C         PTSUNNY   85  51  31 W9G17     30.12R

$$
NMZ519>523-281800-
CENTRAL VALLEYS/CENTRAL HIGHLANDS

CITY           SKY/WX    TMP DP  RH WIND       PRES   REMARKS
ALBUQUERQUE    MOSUNNY   83  47  28 CALM      30.17S
DOUBLE EAGLE   MOSUNNY   82  57  42 VRB5      30.20F
MORIARTY ARPT    N/A     83  47  27 CALM      30.23S
CLINES CORNERS SUNNY     81  46  29 NW8       30.27R
BELEN          FAIR      84  43  23 CALM      30.15S
SOCORRO        FAIR      81  52  36 S5        30.13S

$$
NMZ524>526-539-540-281800-
SOUTHCENTRAL MOUNTAINS

CITY           SKY/WX    TMP DP  RH WIND       PRES   REMARKS
RUIDOSO          N/A    N/A N/A N/A MISG        N/A

$$
NMZ527>531-281800-
NORTHEAST HIGHLANDS/NORTHEAST PLAINS

CITY           SKY/WX    TMP DP  RH WIND       PRES   REMARKS
LAS VEGAS      MOSUNNY   83  44  25 CALM      30.24S
RATON          MOSUNNY   78  48  34 E12       30.22R
CLAYTON        PTSUNNY   77  46  33 N14       30.15R

$$
NMZ532>537-281800-
EASTCENTRAL PLAINS

CITY           SKY/WX    TMP DP  RH WIND       PRES   REMARKS
TUCUMCARI      SUNNY     89  58  34 VRB3      30.02S
CANNON AFB     SUNNY     87  61  41 VRB3      30.06S
CLOVIS AIRPORT SUNNY     88  63  42 S8        30.07S

$$
NMZ028-029-538-281800-
SOUTHEAST PLAINS

CITY           SKY/WX    TMP DP  RH WIND       PRES   REMARKS
ROSWELL        SUNNY     91  59  33 MISG      30.00S
ARTESIA        SUNNY     93  59  31 CALM      30.00S
CARLSBAD       SUNNY     95  59  30 SE10      29.97S
HOBBS          SUNNY     90  59  35 S8        30.04S


$$



USA.gov is the U.S. government's official web portal to all federal, state and local government web resources and services.